Weather History for Bishop, CA

Change the Weather History Date:

Thursday, January 9, 2014

  Actual Average Record
Temperature  
Mean Temperature 45 °F 38 °F  
Max Temperature 66 °F 54 °F 67 °F (1962)
Min Temperature 24 °F 22 °F 3 °F (1955)
Degree Days  
Heating Degree Days 20 27  
Month to date heating degree days 210 245  
Since 1 July heating degree days 2018 1992  
Cooling Degree Days 0 0  
Month to date cooling degree days 0 0  
Year to date cooling degree days 0 0  
Moisture  
Dew Point 16 °F    
Average Humidity 31    
Maximum Humidity 46    
Minimum Humidity 15    
Precipitation  
Precipitation 0.00 in 0.04 in 0.66 in (2005)
Month to date precipitation 0.00 0.37  
Year to date precipitation 0.00 0.37  
Snow  
Snow 0.00 in 0.20 in 1.20 in (1973)
Month to date snowfall 0.0 1.1  
Since 1 July snowfall 0.5 2.8  
Snow Depth 0.00 in    
Sea Level Pressure  
Sea Level Pressure 30.05 in    
Wind  
Wind Speed 8 mph (NNW)    
Max Wind Speed 25 mph    
Max Gust Speed 34 mph    
Visibility 10 miles    
Events      
T = Trace of Precipitation, MM = Missing Value Source: NWS Daily Summary

Daily Weather History Graph

Daily Weather History Graph

Search for Another Location

Airport:

Trip Planner

Search our weather history database for the weather conditions in past years. The results will help you decide how hot, cold, wet, or windy it might be!

Date:

Astronomy

Jan. 09, 2014 Rise Set
Actual Time 7:07 AM PST 4:53 PM PST
Civil Twilight 6:39 AM PST 5:22 PM PST
Nautical Twilight 6:06 AM PST 5:54 PM PST
Astronomical Twilight 5:35 AM PST 6:26 PM PST
Moon 12:20 PM PST (1/9) 1:23 AM PST (1/9)
Length of Visible Light 10h 43m
Length of Day
9h 45m
Waxing Gibbous, 67% of the Moon is Illuminated
Jan 9
Waxing Gibbous
Jan 15
Full
Jan 23
Last Quarter
Jan 30
New
Feb 6
First Quarter

Hourly Weather History & Observations

Time (PST) Temp. Windchill Dew Point Humidity Pressure Visibility Wind Dir Wind Speed Gust Speed Precip Events Conditions
12:56 AM 27.0 °F 21.6 °F 6.1 °F 41% 30.07 in 10.0 mi NW 4.6 mph - N/A   Clear
1:56 AM 26.1 °F 18.4 °F 6.1 °F 43% 30.07 in 10.0 mi NW 6.9 mph - N/A   Clear
2:56 AM 25.0 °F 15.5 °F 7.0 °F 46% 30.08 in 10.0 mi NW 9.2 mph - N/A   Clear
3:56 AM 28.9 °F - 7.0 °F 40% 30.05 in 10.0 mi Calm Calm - N/A   Clear
4:56 AM 28.0 °F 20.0 °F 8.1 °F 43% 30.04 in 10.0 mi ENE 8.1 mph - N/A   Partly Cloudy
5:56 AM 33.1 °F 26.9 °F 8.1 °F 35% 30.06 in 10.0 mi Variable 6.9 mph - N/A   Mostly Cloudy
6:56 AM 35.1 °F - 10.0 °F 35% 30.05 in 10.0 mi Calm Calm - N/A   Overcast
7:56 AM 35.1 °F 30.1 °F 10.0 °F 35% 30.06 in 10.0 mi WNW 5.8 mph - N/A   Partly Cloudy
8:56 AM 37.9 °F - 12.0 °F 35% 30.09 in 10.0 mi Calm Calm - N/A   Overcast
9:56 AM 45.0 °F - 10.9 °F 25% 30.08 in 10.0 mi Calm Calm - N/A   Partly Cloudy
10:56 AM 52.0 °F - 10.0 °F 19% 30.08 in 10.0 mi Calm Calm - N/A   Clear
11:56 AM 57.0 °F - 12.0 °F 17% 30.01 in 10.0 mi Calm Calm - N/A   Clear
12:56 PM 62.1 °F - 17.1 °F 18% 29.95 in 10.0 mi Variable 4.6 mph - N/A   Clear
1:56 PM 66.0 °F - 18.0 °F 16% 29.94 in 10.0 mi NNW 9.2 mph - N/A   Clear
3:56 PM 64.9 °F - 21.0 °F 19% 29.95 in 10.0 mi North 21.9 mph 29.9 mph N/A   Clear
4:56 PM 61.0 °F - 21.9 °F 22% 29.99 in 10.0 mi NNW 17.3 mph 23.0 mph N/A   Partly Cloudy
5:56 PM 59.0 °F - 24.1 °F 26% 30.01 in 10.0 mi North 17.3 mph - N/A   Partly Cloudy
6:56 PM 57.9 °F - 25.0 °F 28% 30.05 in 10.0 mi NNW 11.5 mph - N/A   Mostly Cloudy
7:56 PM 57.0 °F - 26.1 °F 30% 30.07 in 10.0 mi NNW 11.5 mph - N/A   Scattered Clouds
8:56 PM 52.0 °F - 28.0 °F 40% 30.10 in 10.0 mi North 12.7 mph - N/A   Scattered Clouds
9:56 PM 51.1 °F - 28.0 °F 41% 30.10 in 10.0 mi North 11.5 mph - N/A   Partly Cloudy
10:56 PM 48.0 °F - 28.0 °F 46% 30.12 in 10.0 mi North 10.4 mph - N/A   Clear
11:56 PM 50.0 °F - 28.0 °F 43% 30.09 in 10.0 mi NW 13.8 mph - N/A   Clear